Home   Weather   33°51'N, 118°14'W   Past weeks
Flag for USA

Past Weather in 33°51'N, 118°14'W, USA — Yesterday and Last 2 Weeks

Now
84 °F

Passing clouds.


Feels Like: 84 °F
Forecast: 87 / 66 °F
Wind: N/A

Location: Los Angeles / USC Campus Downtown

Current Time: Jul 23, 2019 at 1:02:58 pm

Latest Report: Jul 23, 2019 at 11:52 am


Visibility: 10 mi

Pressure: 29.95 "Hg

Humidity: 46%

Dew Point: 61 °F

Location of 33°51'N, 118°14'WLocation

Past Weather in 33°51'N, 118°14'W — Graph

°F

33°51'N, 118°14'W Temperature Yesterday

Maximum temperature yesterday: 85 °F (at 12:52 pm)
Minimum temperature yesterday: 65 °F (at 1:09 am)
Average temperature yesterday: 72 °F

High & Low Weather Summary for the Past Weeks

 TemperatureHumidityPressure
High88 °F (Jul 13, 4:52 pm)93% (Jul 15, 5:52 am)30.05 "Hg (Jul 15, 5:52 am)
Low50 °F (Jul 8, 10:52 pm)19% (Jul 13, 4:52 pm)29.77 "Hg (Jul 12, 5:52 pm)
Average71 °F70%29.92 "Hg
* Reported Jul 8 11:52 am — Jul 23 11:52 am, 33°51'N, 118°14'W. Weather by CustomWeather, © 2019

Note: Actual official high and low records may vary slightly from our data, if they occured in-between our weather recording intervals... More about our weather records

Advertising

33°51'N, 118°14'W Weather History for the Previous 24 Hours

Scroll right to see more
 ConditionsComfort  
Time TempWeatherWind HumidityBarometerVisibility
11:52 am
Tue, Jul 23
84 °FPassing clouds.N/A46%29.95 "Hg10 mi
10:52 am75 °FPartly sunny.5 mph69%29.98 "Hg9 mi
9:52 am81 °FSunny.5 mph56%29.97 "Hg9 mi
8:52 am75 °FSunny.No wind69%29.97 "Hg9 mi
7:52 am72 °FSunny.No wind76%29.96 "Hg8 mi
6:52 am71 °FPassing clouds.No wind73%29.96 "Hg9 mi
5:52 am71 °FClear.No wind73%29.94 "Hg10 mi
4:52 am71 °FClear.No wind73%29.93 "Hg10 mi
3:52 am71 °FClear.No wind73%29.94 "Hg10 mi
2:52 am69 °FClear.No wind79%29.95 "Hg10 mi
1:52 am69 °FClear.3 mph79%29.96 "Hg10 mi
12:52 am69 °FClear.No wind76%29.96 "Hg10 mi
11:52 pm
Mon, Jul 22
70 °FClear.No wind76%29.96 "Hg10 mi
10:52 pm71 °FClear.No wind73%29.94 "Hg10 mi
9:52 pm73 °FClear.No wind69%29.94 "Hg10 mi
8:52 pm73 °FClear.5 mph69%29.93 "Hg10 mi
7:52 pm75 °FSunny.3 mph64%29.93 "Hg10 mi
6:52 pm79 °FSunny.No wind56%29.93 "Hg10 mi
5:52 pm79 °FSunny.No wind56%29.93 "Hg10 mi
4:52 pm81 °FSunny.3 mph53%29.92 "Hg10 mi
3:52 pm83 °FSunny.9 mph48%29.92 "Hg10 mi
2:52 pm83 °FSunny.N/A50%29.92 "Hg10 mi
1:52 pm83 °FSunny.3 mph51%29.93 "Hg10 mi
Weather by CustomWeather, © 2019

See weather overview